Location: Duffs
(47.4500°N, 53.1167°W)
Time: 11:59:13
(UTC+00:00)

ISS - Pass Details

Date: 28 May 2022
Orbit: 414 x 420 km, 51.6° (Epoch: 01 July)

Event Time Altitude Azimuth Distance (km) Brightness Sun altitude
Rises 00:16:58 0° 294° (WNW) 2,370 1.5 -8.7°
Reaches altitude 10° 00:19:05 10° 294° (WNW) 1,502 0.3 -8.9°
Maximum altitude 00:22:27 88° 210° (SSW) 423 -3.8 -9.3°
Enters shadow 00:25:25 13° 117° (ESE) 1,329 -1.8 -9.6°
